RH
60 62 65 71 77 80 79 76 76 78 79 76 74 76 87 92 94 93 92 92 92 92 92 91 90 90 89 88 87 86 85 84 84 83 83 82 82 82 82 81 80 78 77 76 74 73 72 70 69 68 67 65 64 62 60 58 56 54 52 50 48 46 44 42 40 38 36 34 32 30 28 27 26 24 23 22 20 19 18 17 16 15 14 13 12 11
57 60 63 70 77 82 82 78 77 79 83 80 76 77 84 90 93 93 93 92 92 92 91 90 90 90 88 88 87 86 85 84 84 83 83 83 83 83 82 81 80 79 77 76 74 73 72 71 70 68 67 66 64 62 60 58 57 55 53 51 48 46 44 42 40 38 36 34 32 30 29 27 26 24 23 22 20 19 18 17 16 15 14 12 12 11
55 58 61 69 77 83 83 80 79 80 84 84 82 81 84 90 92 93 93 93 92 92 92 90 90 90 88 88 87 86 86 85 84 84 84 84 84 84 83 82 81 80 78 76 75 74 72 71 70 68 67 66 64 62 60 59 57 55 53 51 49 47 45 42 40 38 36 34 32 30 29 27 26 24 23 22 20 19 18 17 16 14 13 12 11 10
54 56 60 69 78 84 84 82 81 82 85 87 88 87 87 90 92 92 92 93 93 92 92 92 90 90 89 88 87 87 86 85 85 85 85 85 85 84 84 83 82 80 78 77 76 74 72 71 70 68 67 66 64 62 61 60 58 56 54 52 50 47 45 43 40 39 36 34 33 31 29 28 26 24 23 22 20 19 18 16 15 14 13 12 11 10
52 54 58 70 79 84 84 84 82 82 84 88 90 91 90 90 90 91 92 92 92 93 92 92 91 90 90 89 88 87 87 86 86 86 86 86 86 85 84 83 82 80 79 77 76 74 73 71 70 68 67 66 64 63 62 60 58 56 54 52 50 48 46 43 41 39 37 35 33 31 29 28 26 25 24 22 20 19 18 16 15 14 13 12 11 10
50 54 59 70 79 85 85 84 83 82 82 86 90 92 92 91 90 90 90 92 92 92 93 92 92 91 90 90 89 88 88 87 87 87 87 86 86 86 85 84 82 81 79 78 76 74 73 71 70 68 67 66 65 64 62 60 59 57 55 53 51 48 46 44 42 40 37 35 34 32 30 28 26 26 24 22 21 19 18 16 15 14 13 12 11 10
50 53 58 67 77 84 86 84 83 81 80 84 88 91 92 92 92 90 90 90 92 93 93 93 92 92 91 90 90 89 88 88 88 88 87 87 86 86 85 84 82 81 80 78 77 76 74 72 70 69 67 66 65 64 63 61 60 58 56 54 52 49 47 44 42 40 38 36 34 32 30 28 27 26 24 23 21 20 18 17 16 14 13 12 11 10
51 53 57 64 73 81 86 85 84 82 81 83 86 89 90 92 92 91 90 90 92 92 93 93 93 92 92 90 90 90 90 89 89 88 88 88 87 86 86 84 83 82 80 79 78 76 74 72 70 69 68 67 66 65 63 62 60 58 57 54 52 50 48 45 43 40 38 36 34 32 30 29 28 26 24 23 22 20 19 17 16 14 13 12 11 10
52 54 55 60 69 78 86 85 84 83 82 83 85 88 89 90 90 90 90 91 92 92 92 92 92 92 92 92 91 90 90 90 90 90 89 89 88 87 86 86 84 82 81 80 78 77 75 73 71 70 68 67 66 65 64 62 60 59 58 56 53 51 48 46 44 42 39 37 35 33 31 30 28 27 26 24 22 21 19 18 16 15 14 12 11 10
52 54 55 59 66 75 84 85 85 84 82 81 83 86 88 87 87 88 90 92 92 92 92 92 92 92 92 92 92 92 92 91 90 90 90 90 89 88 88 86 84 82 80 80 79 78 76 74 72 70 69 68 67 66 64 63 61 60 58 56 54 52 50 48 45 42 40 38 36 34 32 31 29 28 26 24 23 21 20 18 16 15 14 12 11 10
52 54 55 58 64 72 81 85 86 84 82 78 80 84 88 87 88 90 92 93 93 93 93 92 92 92 92 92 92 92 92 92 91 90 90 90 90 89 88 86 84 82 80 80 79 78 76 74 73 71 70 69 67 66 64 63 62 60 59 58 56 54 52 49 46 44 42 39 37 35 34 32 30 28 27 26 24 22 20 18 17 16 14 13 12 10
53 54 55 57 61 68 76 83 86 85 82 78 79 84 89 90 91 92 94 94 93 93 93 93 92 92 92 92 92 92 92 92 91 90 90 90 89 88 87 85 83 81 80 79 79 78 76 76 74 72 71 69 68 66 65 63 62 61 60 58 57 55 53 51 48 46 43 41 39 37 35 33 31 30 28 26 24 23 21 19 18 16 15 13 12 10
53 54 56 57 60 64 71 81 86 86 82 79 81 86 92 92 93 93 93 93 93 93 93 93 92 92 92 92 92 92 92 92 91 90 90 90 89 88 87 85 83 81 80 80 79 78 77 76 75 74 72 70 68 66 65 64 62 61 60 59 58 56 54 52 50 48 45 43 40 39 36 34 33 31 29 27 25 24 22 20 18 17 16 14 12 11
53 55 58 59 60 64 70 81 87 88 86 85 87 90 92 92 93 93 92 92 92 92 92 92 92 91 91 92 92 92 92 91 90 90 89 88 88 87 86 85 84 82 81 80 80 79 78 77 76 74 72 70 68 66 65 64 63 62 61 60 58 57 55 53 51 49 47 44 42 40 38 36 34 32 30 28 26 24 22 21 19 18 16 14 12 11
54 57 59 60 61 65 73 84 90 92 92 92 92 92 92 92 92 92 92 92 92 92 92 92 90 90 90 90 90 91 91 90 90 89 88 87 87 87 87 86 85 84 82 82 80 80 79 78 76 74 72 70 68 67 66 65 64 62 61 60 58 57 56 54 52 50 48 46 44 42 40 38 36 34 32 30 27 26 24 22 20 18 16 14 13 11
56 58 60 60 62 67 76 87 92 93 93 93 92 92 92 92 92 92 92 92 92 92 92 92 90 89 88 90 90 91 91 90 89 88 87 87 87 88 88 87 86 85 84 83 82 80 80 78 77 75 73 71 70 68 67 66 64 63 62 60 59 58 56 55 53 51 50 48 46 44 42 40 38 35 33 31 28 26 24 22 20 19 17 15 13 11
59 60 61 61 64 70 80 89 92 93 92 92 92 92 92 92 92 92 92 92 92 92 92 90 90 88 88 88 90 91 92 90 90 88 88 88 88 89 89 89 88 86 85 84 82 81 80 78 77 76 74 72 71 70 68 67 65 64 62 61 60 58 57 55 54 52 50 49 47 45 42 40 38 36 34 32 29 27 24 23 21 19 17 15 13 11
62 62 63 65 69 76 85 90 92 93 92 92 92 92 92 92 92 92 92 92 92 91 90 90 88 88 87 87 89 90 92 92 90 90 88 88 88 89 90 89 88 86 85 83 82 80 79 78 77 76 75 74 72 71 69 67 66 64 62 61 60 58 57 55 54 52 50 48 46 44 42 40 38 36 34 32 29 27 25 23 21 19 16 14 12 11
64 65 67 70 74 80 89 92 92 92 92 91 90 90 92 92 92 92 92 92 92 92 90 89 88 87 86 86 88 90 92 92 91 90 88 88 88 89 90 89 88 86 84 82 81 80 79 78 78 77 76 75 74 72 70 68 66 64 62 61 60 58 56 54 52 50 48 46 44 42 40 39 37 35 33 31 28 26 24 22 20 18 16 14 12 11
67 68 70 74 80 87 92 92 92 92 90 90 90 92 92 92 92 92 92 92 92 92 91 90 88 87 86 87 89 91 92 92 91 90 88 88 88 89 89 88 87 85 83 81 80 80 80 80 79 78 78 76 74 72 71 68 66 64 62 60 58 57 55 53 51 49 47 45 43 42 40 38 36 34 32 30 28 26 24 22 20 17 15 14 12 11
68 71 74 81 87 92 92 92 92 91 90 90 91 91 91 92 92 92 92 92 92 92 91 90 89 89 89 90 90 92 91 90 90 89 88 87 87 88 88 87 86 84 82 81 81 81 82 82 81 80 78 77 75 73 71 69 67 64 62 60 58 56 54 52 50 48 46 44 42 40 39 37 35 33 31 28 26 24 22 20 18 16 15 13 12 12
66 71 76 82 87 90 92 92 91 90 90 91 91 91 91 91 92 92 92 92 92 92 91 90 90 90 90 90 90 90 90 89 88 87 86 85 85 86 86 86 85 84 82 81 82 83 84 83 82 80 79 78 76 74 72 70 67 64 62 60 58 56 54 52 50 48 46 44 42 40 39 36 34 32 30 28 26 24 22 20 18 16 14 13 12 12
61 67 74 80 86 90 92 91 91 91 91 91 91 91 90 90 91 91 91 90 90 90 90 90 89 89 88 88 88 88 88 87 86 86 85 84 83 83 85 85 85 84 83 83 84 85 85 84 82 80 79 78 76 74 72 70 68 65 62 60 58 56 54 52 50 48 47 45 43 42 40 38 36 33 31 28 26 24 22 20 18 16 14 13 13 12
60 66 72 78 84 89 92 91 91 92 92 92 91 91 91 91 91 90 90 90 89 88 88 87 87 87 86 87 87 87 86 86 85 85 84 82 82 82 84 86 86 86 85 85 86 86 85 84 82 80 79 78 76 74 73 70 68 65 63 60 58 56 54 53 51 49 48 46 44 43 41 39 37 35 32 30 27 24 22 20 18 16 14 14 13 13
68 69 73 78 84 88 92 92 92 92 92 92 91 91 91 91 91 90 90 89 88 87 87 86 86 85 85 86 86 86 86 86 85 85 84 83 82 83 84 86 87 87 86 86 86 86 84 83 81 80 79 78 76 75 73 70 68 65 63 61 60 58 56 54 52 50 48 47 45 44 42 40 38 36 33 30 27 24 22 19 17 16 14 14 14 14
78 76 77 80 84 88 90 92 92 92 92 92 92 92 91 91 91 90 90 90 89 88 87 86 86 85 85 86 86 86 87 87 87 86 86 85 84 84 84 86 86 86 86 85 85 84 83 82 80 80 78 78 76 74 72 70 68 65 63 62 61 60 58 56 53 51 49 47 45 43 42 40 37 35 32 29 26 23 20 18 16 15 14 15 15 15
85 83 82 83 85 87 89 90 90 90 90 90 90 91 91 91 90 90 90 90 90 90 90 88 87 86 86 86 87 88 88 89 89 89 88 87 86 85 84 85 85 85 84 84 83 82 82 81 80 78 78 77 76 74 72 70 68 66 64 63 62 61 59 56 54 50 48 45 43 41 39 37 35 32 30 26 24 21 18 16 14 14 14 15 16 16
89 88 88 86 86 86 87 88 88 89 89 89 89 89 90 90 89 88 88 89 90 90 90 89 88 87 87 86 87 88 89 89 89 89 89 88 86 85 84 84 85 84 84 83 82 81 80 79 78 77 76 76 74 72 70 69 67 66 65 64 63 61 59 56 53 49 46 43 41 38 36 34 31 29 26 24 21 18 16 14 14 14 15 16 16 16
90 90 90 89 88 87 86 86 86 86 87 87 88 87 87 86 85 85 85 88 89 90 89 89 89 88 88 87 88 88 88 88 88 88 88 88 86 84 84 84 84 84 83 82 81 80 79 78 76 76 74 73 72 70 68 67 66 65 64 63 61 60 57 54 52 48 45 42 39 36 33 30 28 26 23 20 18 16 14 13 13 14 16 17 17 17
90 90 90 90 90 89 88 87 86 85 85 86 86 86 86 84 83 82 84 86 86 86 86 87 88 89 89 89 88 88 86 86 87 88 88 87 86 84 84 84 84 84 83 82 80 79 77 76 74 73 72 70 69 68 66 65 64 63 62 60 59 57 55 53 51 48 46 43 40 36 32 29 26 23 20 18 16 14 13 13 14 15 17 18 18 18
90 90 90 90 90 90 90 89 87 86 85 85 86 86 85 83 82 82 82 83 84 84 84 86 88 90 90 89 88 87 85 85 86 88 87 86 85 84 83 83 83 83 82 81 80 78 76 74 72 70 69 68 66 65 64 63 62 60 60 58 56 55 54 53 52 50 49 46 43 40 35 30 26 22 19 16 14 13 12 12 14 16 18 18 18 18
90 90 90 90 90 90 90 90 89 88 87 86 86 86 85 84 83 82 81 82 83 83 84 86 88 90 90 89 88 86 85 86 86 87 87 86 85 84 83 82 82 82 81 80 79 77 75 72 69 67 66 64 62 61 60 59 58 58 57 56 55 54 54 53 53 53 52 51 48 44 40 35 30 25 20 17 14 12 12 12 14 16 18 18 18 18
90 90 90 90 90 90 90 90 90 89 89 88 88 87 87 86 85 84 82 82 82 84 85 87 88 90 90 89 88 87 86 86 86 86 86 86 84 83 82 81 81 80 80 80 78 76 74 71 68 65 62 60 59 58 57 56 56 56 55 54 54 53 53 54 54 54 54 53 51 49 45 40 36 30 24 20 16 13 12 12 14 15 17 18 18 18
90 90 90 90 90 90 90 90 90 90 90 90 90 89 89 88 88 87 85 83 82 82 84 85 87 89 90 89 88 87 86 86 86 86 86 85 84 82 82 81 80 80 79 78 76 74 72 68 65 62 60 58 57 56 56 56 55 55 55 54 54 53 53 53 53 53 53 53 52 50 48 45 40 36 30 24 19 15 13 12 13 14 16 18 19 19
90 90 90 90 90 90 90 90 90 90 90 90 90 90 90 90 90 89 88 86 83 82 81 83 85 87 89 89 88 87 86 86 86 86 85 84 83 82 81 80 79 78 78 76 74 72 68 65 62 60 59 58 56 56 56 56 56 56 56 55 54 53 53 53 53 52 52 52 51 50 49 47 44 40 35 28 23 18 14 13 12 14 15 17 19 20
90 90 90 90 90 90 90 90 90 90 90 90 90 90 90 90 90 90 89 88 86 84 82 82 84 86 88 88 88 86 85 85 85 85 85 84 83 82 80 79 78 77 76 74 72 68 66 63 62 60 60 58 58 56 56 57 58 58 57 56 54 54 53 53 52 52 51 50 50 49 49 48 46 42 38 33 27 21 16 14 12 13 14 16 18 20
89 89 90 90 90 90 90 90 90 90 90 90 90 89 89 89 89 89 89 89 88 86 84 83 84 85 88 88 87 86 85 85 85 85 85 84 83 82 80 78 77 76 74 72 70 68 66 65 64 63 62 61 60 60 60 60 60 60 58 56 56 54 53 52 52 51 50 50 49 48 48 48 46 44 42 36 31 25 20 16 13 12 13 15 18 20
84 84 84 86 88 89 90 90 90 90 90 89 89 89 89 89 89 89 88 88 88 88 87 85 84 84 86 87 87 86 86 85 85 84 84 83 82 81 79 78 76 74 72 71 71 70 70 70 68 67 65 64 64 64 64 63 62 61 60 58 57 56 54 52 51 50 50 49 48 48 47 47 46 45 43 40 35 29 24 18 15 13 13 14 16 18
82 83 84 86 88 88 89 90 90 90 90 90 90 90 90 90 90 89 89 89 88 88 88 87 86 86 86 86 86 86 85 84 84 83 82 81 80 79 78 76 76 74 73 74 74 75 75 74 73 71 69 68 66 65 65 65 64 62 61 60 58 55 53 52 52 51 50 49 48 47 46 46 46 46 45 42 39 34 28 22 18 14 13 14 15 16
82 83 84 86 87 89 90 90 90 90 90 90 90 90 90 89 89 90 90 89 89 89 88 88 88 87 87 86 86 86 85 84 83 82 81 80 79 78 77 77 77 76 77 77 78 78 78 76 74 73 72 70 68 67 66 65 64 64 63 61 58 54 52 53 53 52 50 49 48 47 46 46 46 46 46 44 42 38 33 26 21 16 13 13 14 15
80 80 81 82 84 86 88 89 89 89 89 88 88 88 88 87 87 87 87 88 88 88 88 88 88 87 86 86 85 84 83 82 82 82 81 80 80 80 80 80 80 80 80 80 80 79 78 77 76 74 73 72 71 70 68 66 66 65 65 62 59 56 54 54 54 53 52 51 50 49 49 48 48 47 46 46 44 42 37 30 24 18 14 13 13 14
80 79 80 80 82 83 84 86 87 88 88 88 87 87 86 86 86 86 85 85 85 85 85 85 85 85 84 83 82 82 82 81 81 81 81 81 82 83 83 82 82 82 82 82 82 80 80 79 78 76 74 74 73 72 69 67 66 65 65 62 60 58 57 55 54 55 56 56 54 53 52 51 50 49 48 48 46 44 40 34 27 21 16 14 13 13
80 80 80 80 81 82 83 84 85 86 87 87 86 86 86 86 86 85 84 84 83 83 83 84 84 84 84 83 82 81 81 81 82 82 82 82 83 84 84 84 84 84 84 84 83 82 80 80 79 78 76 76 76 74 72 68 66 64 64 63 63 62 60 57 57 58 60 59 58 56 54 52 52 50 50 49 47 45 42 36 30 24 17 14 12 12
82 82 81 81 81 82 83 84 86 87 87 87 87 86 86 86 86 85 84 84 83 82 82 82 82 82 82 82 81 81 81 82 82 83 84 84 84 84 84 84 85 85 85 85 84 83 82 80 79 78 77 78 77 76 73 70 68 66 65 65 66 66 65 63 62 62 62 60 58 56 55 54 52 51 50 48 46 44 42 37 31 24 18 14 12 11
85 84 83 82 82 82 83 84 86 87 88 88 88 88 88 88 87 86 86 85 84 83 82 82 82 82 81 80 80 80 81 82 83 83 84 84 84 84 84 85 85 85 85 85 84 83 83 82 80 79 79 80 79 77 74 72 70 69 68 68 69 70 69 67 66 64 62 58 56 54 52 51 50 48 47 45 44 42 40 36 30 24 18 14 11 10
86 85 84 83 82 82 82 84 86 87 88 88 88 88 88 88 88 87 87 86 85 85 84 84 83 82 81 80 80 80 81 81 82 82 83 83 84 84 84 85 85 85 85 85 84 84 84 83 82 82 82 81 80 78 75 74 74 73 72 72 72 72 70 66 62 58 53 48 45 42 42 41 40 40 40 40 40 39 37 34 29 24 18 14 11 10
88 87 86 84 84 83 83 84 85 86 86 87 88 88 88 88 87 87 87 86 86 86 86 85 84 83 82 81 81 81 81 80 80 80 81 82 82 83 84 84 84 85 85 85 84 84 84 83 83 83 83 82 80 78 76 76 76 76 75 74 72 68 62 54 46 39 32 28 24 24 24 25 26 29 31 33 34 34 33 30 26 22 18 13 10 9
88 87 86 86 85 84 84 84 85 86 86 87 87 88 87 87 86 86 86 86 86 86 86 86 84 83 82 81 80 79 79 78 78 78 78 79 80 81 82 83 84 84 84 85 84 84 84 83 83 82 82 82 81 79 76 76 76 75 74 68 61 52 42 31 22 15 10 8 7 8 8 10 13 16 19 22 24 26 27 26 24 20 16 12 10 8
88 88 87 86 86 86 85 86 86 86 86 87 87 87 87 86 86 86 86 85 85 85 85 84 84 82 81 79 78 78 77 77 76 76 76 76 77 78 80 82 84 85 84 84 84 83 82 82 81 80 80 81 80 78 76 74 72 68 62 51 39 27 16 10 6 3 2 2 2 2 2 4 5 7 9 12 15 18 20 20 19 17 14 11 9 8
88 88 87 87 87 86 86 87 87 86 86 86 86 86 86 86 86 86 85 85 85 85 84 84 83 82 80 79 78 78 77 76 76 75 74 74 76 78 80 82 84 85 84 84 83 82 81 80 78 78 78 78 78 77 74 68 60 50 38 26 16 8 4 2 2 2 3 3 2 2 2 2 2 3 4 6 8 10 12 13 13 12 10 9 8 8
88 88 88 88 88 87 87 87 87 87 86 86 86 86 85 85 85 85 84 84 84 84 84 83 83 82 81 80 79 78 78 77 76 76 74 76 77 80 82 84 84 84 84 83 82 81 80 79 77 76 75 75 74 71 65 54 40 28 16 9 5 3 4 4 5 6 6 5 5 4 4 3 3 3 3 4 4 6 7 8 8 8 8 7 8 8
Wind_Speed
58 56 54 52 50 48 46 45 45 45 45 46 46 46 45 43 41 40 40 40 40 39 39 39 39 39 39 39 40 41 43 44 45 46 46 47 47 47 47 46 46 46 45 44 44 43 42 42 42 42 41 41 41 42 42 42 42 43 43 43 43 43 42 42 42 42 42 42 41 41 41 40 40 40 40 40 39 39 39 39 39 39 39 39 39 39
58 57 55 53 51 48 46 45 44 44 44 44 45 46 45 44 42 41 40 40 40 39 39 39 39 39 39 40 40 42 43 44 45 46 47 47 47 47 47 46 46 45 45 44 43 42 42 42 42 42 41 41 42 42 42 42 43 43 43 43 43 43 43 42 42 42 42 42 41 41 41 40 40 40 40 40 40 40 40 40 40 40 40 40 40 40
59 57 55 53 51 49 46 45 44 44 44 44 44 45 45 45 43 41 40 40 40 40 40 39 39 40 40 40 41 42 43 45 46 46 47 47 47 47 47 46 46 45 44 43 43 42 42 42 42 41 42 42 42 42 42 43 43 43 43 43 43 43 43 42 42 42 42 42 42 41 41 41 41 40 40 40 40 40 40 41 41 41 40 40 40 40
59 57 55 53 51 49 46 44 44 44 44 43 43 44 44 44 43 41 40 40 40 40 40 41 41 41 41 41 42 43 44 45 46 46 47 47 47 47 47 46 45 45 44 43 42 42 42 41 41 41 42 42 42 42 43 43 43 43 43 43 43 43 43 43 42 42 42 42 42 42 41 41 41 41 41 41 41 41 41 41 41 41 41 41 41 41
58 57 55 53 51 48 45 44 44 44 44 44 44 44 44 44 43 42 41 40 40 40 41 42 42 42 42 43 43 43 44 45 46 47 47 47 47 47 47 46 45 44 44 43 42 42 41 41 41 41 42 42 42 42 43 43 43 43 43 43 43 43 43 43 43 42 42 42 42 42 42 42 42 42 42 42 42 42 42 42 42 42 42 42 42 42
57 56 55 53 50 47 44 43 44 45 45 45 45 44 44 44 43 42 42 42 41 41 42 42 43 43 44 44 44 44 45 46 47 47 47 47 47 47 47 46 45 44 43 43 42 42 41 41 41 42 42 42 42 42 43 43 43 43 43 43 43 43 43 43 43 43 43 43 43 43 43 42 42 42 42 42 42 42 42 42 42 42 42 42 42 42
57 56 54 52 50 46 44 43 44 45 46 46 46 45 44 43 42 42 42 43 43 43 43 43 44 44 44 45 45 45 46 47 47 47 47 47 47 47 46 46 45 44 43 43 42 42 42 41 42 42 42 42 42 42 43 43 43 43 43 43 43 43 43 43 43 43 43 43 43 43 43 43 43 43 43 43 43 43 43 43 43 43 43 43 43 43
57 56 54 52 50 47 44 44 44 46 47 47 47 46 44 43 42 42 42 43 44 44 45 44 44 44 44 45 45 46 47 47 47 47 47 47 47 46 46 45 45 44 44 43 43 42 42 42 42 42 42 42 42 42 43 43 43 43 43 43 43 43 43 43 43 44 44 44 44 44 44 44 44 44 44 44 44 44 44 44 44 44 44 44 43 43
56 55 54 52 50 48 46 45 45 46 47 48 47 45 44 42 42 42 43 45 46 46 46 45 45 44 44 44 44 45 46 47 47 47 47 46 46 46 46 45 45 45 44 44 43 42 42 42 42 42 42 42 42 42 43 43 43 43 43 43 43 43 43 43 44 44 44 44 44 45 45 45 45 45 45 45 45 45 45 45 45 45 45 44 44 44
56 55 54 52 51 50 49 48 46 46 47 48 47 45 43 42 42 43 45 46 47 47 46 45 44 43 42 42 43 44 45 46 46 46 46 46 46 46 46 46 46 45 45 44 44 43 43 42 42 42 42 42 42 42 42 42 42 43 43 43 43 43 43 43 44 44 44 45 45 45 45 46 46 46 46 46 46 46 46 46 46 46 45 45 45 45
55 55 54 53 52 52 51 50 47 46 47 48 47 44 42 42 43 45 47 47 46 45 44 43 42 41 40 40 41 43 44 45 46 46 46 46 46 46 46 46 46 46 45 45 44 44 43 43 42 42 42 42 42 42 42 42 42 42 42 43 43 43 43 43 44 44 45 45 45 46 46 46 47 47 47 47 47 47 47 47 47 47 46 46 46 46
55 55 54 53 53 53 52 51 48 46 46 46 45 44 43 43 45 46 46 45 43 42 41 41 41 40 40 40 40 42 43 45 45 46 46 46 46 46 46 46 46 46 46 45 45 44 43 43 42 42 42 42 42 42 42 42 42 42 42 42 43 43 43 44 44 45 45 45 46 46 46 47 47 48 48 48 48 48 48 48 48 48 47 47 47 47
55 55 54 53 53 53 52 50 48 46 45 45 45 45 45 45 45 45 43 42 40 39 39 39 40 40 40 40 40 41 42 44 45 45 46 46 46 46 46 47 47 46 46 46 45 44 43 43 42 42 41 41 41 41 42 42 42 42 42 42 43 43 43 44 44 45 45 45 46 46 47 47 48 48 49 49 49 49 49 49 49 48 48 48 48 48
55 54 54 53 53 52 50 49 47 45 45 46 46 46 46 45 43 42 40 39 38 38 39 39 39 39 39 40 40 41 42 43 44 45 46 46 46 46 47 47 47 47 46 46 45 44 43 42 42 42 41 41 41 41 41 42 42 42 42 42 43 43 43 44 44 45 45 45 46 46 47 48 48 49 49 49 50 50 50 50 50 49 49 49 49 49
54 54 53 52 51 50 49 47 46 45 46 46 47 47 45 43 41 39 38 37 37 38 39 39 39 39 39 39 40 41 42 43 44 45 46 46 46 46 46 47 47 47 46 46 45 44 43 42 42 41 41 41 41 41 41 42 42 42 42 43 43 43 44 44 44 45 45 45 46 47 47 48 49 49 50 50 50 50 50 50 50 50 50 50 50 50
53 52 51 50 49 48 47 46 46 46 45 46 46 45 43 40 38 36 36 36 36 37 38 39 39 39 39 39 39 40 42 43 44 45 46 46 46 46 46 46 46 46 46 46 45 44 43 42 41 41 41 41 41 41 41 41 42 42 42 43 43 43 44 44 44 45 45 45 46 47 47 48 49 50 50 50 51 51 51 51 51 51 51 51 51 51
51 50 49 48 47 47 46 46 46 46 45 45 44 42 39 37 35 34 34 34 35 36 37 38 38 38 38 38 39 39 41 42 43 44 45 46 46 46 46 46 46 46 46 45 44 43 43 42 41 41 40 40 40 41 41 41 41 42 42 43 43 43 44 44 44 45 45 45 46 47 47 48 49 50 50 51 51 51 51 51 51 51 51 51 51 51
50 49 48 46 46 46 45 46 46 45 45 43 41 38 36 34 33 32 32 33 34 35 36 36 37 37 37 37 37 38 39 41 42 44 44 45 45 45 45 46 46 46 46 45 44 43 42 42 41 41 40 40 40 40 41 41 41 42 42 43 43 43 44 44 44 44 45 45 46 46 47 48 49 50 50 51 51 51 52 52 52 52 52 52 52 52
48 47 46 45 45 45 45 45 45 44 43 41 38 35 34 32 31 31 32 32 33 34 35 35 36 36 36 36 36 37 38 40 42 43 44 44 44 44 44 45 45 45 45 45 44 43 42 41 41 40 40 40 40 40 40 41 41 42 42 43 43 43 44 44 44 44 45 45 46 46 47 48 49 50 50 51 51 52 52 52 53 53 53 53 52 52
46 46 45 44 44 45 45 45 44 43 40 38 36 34 32 31 30 31 32 32 33 34 35 35 36 36 35 35 35 36 37 39 41 42 43 43 43 43 44 44 45 45 45 44 43 43 42 41 41 40 40 40 40 40 40 41 41 42 42 43 43 43 43 44 44 44 45 45 46 46 47 48 49 50 51 51 52 52 52 53 53 53 53 53 53 53
45 44 44 43 43 44 44 44 42 40 38 36 34 33 31 30 30 31 32 33 34 35 35 36 36 36 35 35 35 36 38 39 41 42 42 42 42 43 43 44 44 45 44 44 43 42 41 41 41 40 40 40 40 40 40 41 41 42 42 43 43 43 43 43 44 44 45 45 46 47 47 48 49 50 51 51 52 52 53 53 53 53 53 53 53 53
43 42 42 42 43 43 43 42 40 38 36 35 34 32 30 29 29 30 31 33 34 35 36 36 36 36 36 36 36 37 38 39 40 41 42 42 42 42 42 43 44 44 44 43 42 41 41 41 40 40 39 40 40 40 41 41 41 42 42 42 42 43 43 43 44 44 45 45 46 46 47 48 49 50 51 51 52 53 53 53 54 54 54 53 53 53
42 41 40 41 42 43 42 40 38 36 35 35 34 32 30 29 29 30 31 33 34 35 36 36 37 37 37 37 37 38 39 39 40 41 41 42 42 42 42 43 43 44 43 42 41 41 41 40 40 40 40 40 40 40 41 41 41 41 42 42 42 42 43 43 44 44 44 45 46 46 47 48 49 50 51 51 52 53 53 53 54 54 53 53 53 53
42 40 39 40 41 41 40 38 36 35 35 35 34 32 30 30 30 31 33 34 35 36 36 37 37 38 38 38 38 39 39 40 40 41 41 41 41 41 42 42 43 43 43 41 41 40 40 40 40 40 40 40 40 40 40 40 41 41 41 42 42 42 43 43 43 44 44 45 46 46 47 48 49 50 50 51 52 52 53 53 53 53 53 53 53 53
43 41 39 39 40 40 39 37 35 34 34 34 33 31 30 30 30 31 32 33 34 35 36 36 37 38 38 39 39 39 40 40 41 41 41 41 41 41 41 42 42 42 42 41 40 40 40 40 40 40 40 40 40 39 40 40 40 41 41 41 41 42 42 43 43 44 44 45 46 46 47 48 49 50 50 51 51 52 52 52 53 53 53 53 53 54
43 41 40 40 40 39 38 36 35 34 33 32 31 30 30 30 30 31 32 32 33 34 35 36 37 38 39 39 40 40 40 41 41 42 42 42 41 41 41 41 41 41 41 40 40 40 40 40 40 40 40 39 39 39 39 39 40 40 40 41 41 41 42 42 43 43 44 45 46 46 47 48 49 49 50 51 51 51 52 52 52 53 53 53 54 54
41 42 41 41 41 40 39 37 35 33 32 31 30 30 30 30 30 31 32 32 33 34 35 37 38 38 39 40 40 40 41 41 42 42 42 42 42 42 41 41 41 40 40 40 40 40 40 40 40 39 39 38 38 38 38 39 39 39 40 40 40 41 41 42 42 43 44 45 45 46 47 48 48 49 50 50 51 51 51 51 52 52 53 53 54 55
41 42 42 42 42 41 39 37 36 34 32 31 30 30 30 30 31 32 32 32 33 35 37 38 38 38 39 40 40 40 40 41 42 42 42 42 42 42 41 40 40 40 39 39 39 39 39 39 39 38 38 37 37 37 38 38 38 38 39 39 40 40 41 41 42 43 43 44 45 46 46 47 48 49 50 50 51 51 51 51 51 52 52 53 54 55
40 41 42 43 42 42 40 38 36 35 33 32 32 32 31 31 31 31 32 33 35 36 38 39 39 39 39 39 39 40 40 41 41 41 42 42 42 42 40 39 38 38 38 37 38 38 38 38 37 37 37 37 37 37 37 37 37 37 38 38 39 40 40 41 41 42 43 43 44 45 46 47 48 49 49 50 50 51 51 51 51 52 53 53 54 55
39 40 41 42 42 42 41 40 38 36 35 34 33 33 33 32 31 31 31 33 35 37 38 39 40 40 39 39 39 39 40 40 40 40 40 40 41 40 39 38 37 36 35 35 36 37 37 37 36 36 36 36 36 36 36 36 36 37 37 38 38 39 40 40 41 41 42 42 43 44 45 46 47 48 49 50 50 51 51 51 51 52 53 54 54 55
39 39 39 40 40 41 41 40 39 37 36 35 34 34 34 34 32 31 31 32 34 37 38 40 41 41 40 39 39 39 39 38 37 37 38 38 39 38 37 36 35 34 34 34 35 35 36 36 36 35 35 36 36 36 36 36 36 36 36 37 38 38 39 39 40 40 41 41 42 43 44 45 46 47 48 49 50 50 50 51 51 51 52 53 54 55
37 37 38 38 38 38 39 39 38 37 36 35 35 35 35 35 34 34 33 33 34 36 38 40 41 42 42 41 40 39 38 37 36 36 36 36 37 36 35 34 33 33 33 33 34 35 36 36 36 36 36 36 36 36 35 35 35 35 36 36 37 37 38 38 39 39 40 41 41 42 43 44 45 46 47 48 49 49 50 50 50 51 52 53 54 54
34 34 35 35 35 35 35 35 35 35 35 35 35 35 36 36 36 36 36 35 35 35 37 39 41 42 42 42 40 39 37 36 35 35 35 35 35 35 34 33 33 32 33 33 34 35 36 37 37 36 36 36 36 36 35 35 35 35 35 36 36 37 37 37 38 39 39 40 41 41 42 43 44 45 46 47 48 48 49 49 50 50 51 52 53 54
29 30 30 30 30 30 31 31 32 33 34 35 36 36 37 37 38 38 38 38 36 36 35 36 38 40 41 42 41 38 36 34 33 33 33 34 34 34 33 33 33 33 33 34 35 36 37 37 37 37 37 37 36 36 35 35 35 35 35 35 36 36 36 37 37 38 39 40 41 41 42 42 43 44 45 46 47 47 48 49 49 50 50 51 52 53
25 26 26 27 27 28 29 30 31 32 33 35 36 36 37 37 38 38 39 39 39 38 36 36 36 37 39 40 40 38 34 31 30 30 31 32 32 32 32 33 33 33 33 34 35 36 36 37 36 36 36 37 36 36 36 35 36 36 36 36 36 36 36 37 37 38 39 40 40 41 41 42 43 44 44 45 46 47 47 48 49 49 50 50 51 52
24 24 25 26 27 28 29 30 31 32 33 34 34 35 36 36 37 38 39 40 40 40 39 38 37 37 38 39 38 36 31 28 27 28 29 30 31 31 32 32 32 33 33 34 34 35 35 36 36 36 36 37 37 37 36 36 37 37 37 37 37 37 37 37 38 39 39 40 40 41 41 42 43 43 44 45 45 46 46 47 48 48 49 49 50 51
26 26 26 27 28 29 30 30 31 32 33 33 33 34 34 35 36 37 39 40 41 41 41 40 39 39 38 38 37 33 29 26 26 27 28 29 30 30 31 32 32 32 32 32 33 33 34 35 36 36 37 37 38 38 38 38 38 38 39 38 38 38 38 38 39 39 40 40 41 41 41 42 43 43 44 44 44 45 46 46 47 47 48 49 50 51
28 28 28 28 28 29 30 30 31 32 32 32 32 33 33 34 34 35 36 37 39 40 40 40 39 38 37 36 34 30 27 26 26 27 28 29 29 30 30 31 30 30 30 31 31 33 34 35 37 37 38 38 38 39 39 39 40 40 40 40 40 40 40 40 40 40 41 41 41 41 42 42 42 43 43 44 44 44 45 45 46 46 47 48 49 50
28 28 28 28 29 29 30 30 30 31 31 31 32 32 32 32 32 32 32 33 34 36 37 38 38 37 36 34 32 29 27 27 27 27 28 28 28 29 29 29 29 29 29 29 30 32 34 36 37 38 38 39 39 39 40 40 40 41 41 41 42 42 41 41 41 42 42 42 42 42 42 42 42 43 43 43 44 44 44 45 45 45 46 48 49 50
28 28 28 28 28 29 29 29 30 30 31 31 32 32 32 31 30 29 28 28 29 31 32 34 34 34 33 32 30 29 28 28 28 27 27 27 27 27 27 27 27 27 28 29 30 32 34 36 37 37 38 39 40 40 40 41 41 41 42 43 43 43 42 42 43 43 44 44 44 44 43 43 43 43 43 43 43 44 44 44 44 45 46 47 49 50
29 28 28 28 28 28 28 29 30 30 31 32 32 32 31 30 29 27 27 26 26 27 28 30 31 32 32 30 29 28 28 28 27 27 26 26 25 25 26 26 27 27 28 30 31 33 34 36 37 38 39 39 40 41 41 41 41 42 42 44 44 44 44 44 44 45 45 45 45 45 45 45 45 45 44 44 44 44 44 44 44 45 46 47 49 50
29 28 28 27 27 27 27 28 29 30 31 31 31 31 30 29 28 27 26 25 25 25 26 27 28 29 29 29 28 27 27 27 26 26 25 24 24 24 25 26 27 28 29 31 33 34 35 36 37 38 39 40 40 41 42 42 42 43 43 44 45 45 45 45 45 45 46 47 47 47 47 47 47 46 46 46 45 45 45 45 45 45 46 47 48 49
29 29 28 28 27 27 27 27 28 29 30 30 30 30 29 29 28 27 26 26 25 25 25 25 26 27 28 28 27 27 26 26 25 25 24 24 24 24 25 26 28 29 30 32 34 35 36 37 38 39 40 40 41 42 43 44 44 44 44 44 45 46 47 46 46 46 47 48 48 48 49 49 49 48 48 48 47 46 46 45 45 45 46 47 48 49
29 29 29 29 28 28 27 27 27 27 28 28 28 28 28 28 27 27 26 26 25 25 25 24 25 25 26 26 26 26 25 25 24 24 24 24 24 25 26 27 29 30 32 33 35 36 37 38 39 39 40 41 42 43 44 45 45 45 45 45 45 46 48 48 47 48 48 49 49 49 49 50 50 50 50 49 49 48 47 46 46 45 46 46 47 48
29 29 29 29 28 28 27 26 26 26 26 27 27 27 27 27 26 26 25 24 24 24 24 24 24 25 25 25 24 24 23 23 23 23 24 24 24 25 27 28 30 32 33 34 35 36 37 38 39 40 41 42 43 44 45 46 46 46 46 46 46 47 48 48 49 49 50 50 50 50 50 50 50 51 51 50 49 48 48 47 46 46 46 46 47 47
29 29 29 29 29 28 26 25 25 25 25 25 26 26 26 26 25 24 23 22 22 22 22 22 23 24 24 23 23 22 22 22 23 23 23 24 25 26 28 30 31 32 34 35 36 37 38 39 40 41 42 43 44 45 45 45 46 46 46 46 47 48 49 50 50 50 50 50 50 50 49 49 50 51 51 51 50 49 48 47 47 46 46 46 46 46
28 29 29 29 29 29 27 26 25 25 25 24 24 24 24 24 23 22 21 20 20 20 21 22 23 23 23 23 22 22 22 23 23 23 24 25 26 27 29 31 32 33 34 35 37 38 39 40 41 41 42 43 44 45 45 45 45 46 46 47 48 49 50 50 50 50 49 49 49 49 48 49 49 50 50 50 50 50 49 48 47 46 45 45 45 46
28 28 29 29 29 29 28 27 26 25 24 24 23 23 23 23 22 21 20 19 19 20 21 22 23 23 23 23 23 23 23 23 24 24 25 26 27 28 30 31 32 34 35 36 38 39 40 41 42 42 43 43 44 44 44 44 45 45 47 48 49 50 50 50 49 48 48 47 47 47 47 47 48 49 49 50 50 50 49 47 46 46 45 45 45 45
29 29 29 29 30 29 29 28 26 25 24 23 22 22 22 22 22 22 21 21 21 22 23 24 24 24 24 24 24 24 24 25 25 25 26 26 27 29 30 32 33 34 36 37 39 40 41 42 42 42 42 43 43 43 44 44 45 46 47 48 49 49 49 48 46 45 45 45 45 45 45 45 46 47 48 49 49 49 48 47 46 45 44 44 44 44
29 30 30 30 30 30 29 28 27 25 24 23 22 23 23 23 24 24 23 23 23 24 24 25 25 26 26 25 25 25 26 26 26 27 27 27 28 29 31 32 33 35 36 38 39 40 41 42 43 43 42 42 42 42 43 45 46 47 47 47 47 46 46 45 44 43 42 42 42 42 43 43 44 45 46 47 48 48 48 47 46 44 43 43 43 43
30 30 30 30 30 30 30 29 27 25 24 23 23 24 25 25 25 25 25 25 25 25 25 26 26 26 26 26 26 27 27 27 27 28 28 28 29 30 31 32 34 35 36 38 39 40 41 42 42 43 42 42 41 42 43 45 46 47 46 46 44 44 43 43 42 41 41 41 41 41 41 41 42 43 44 45 46 46 46 46 45 43 42 42 42 42
Wind_Direction
281 282 283 283 282 279 275 273 272 273 273 274 274 275 275 273 268 264 261 260 259 259 259 259 258 257 255 253 251 250 249 248 248 248 249 249 249 249 250 250 251 252 252 253 253 254 254 255 255 256 257 257 258 259 259 259 259 259 260 260 261 261 262 262 263 263 264 265 266 266 267 268 270 271 272 273 274 275 276 276 277 278 278 279 280 281
279 280 281 282 282 279 275 272 270 271 271 272 272 272 273 272 269 265 262 261 260 260 260 259 259 258 256 254 252 251 250 249 249 249 249 249 249 250 250 251 251 252 253 253 254 254 255 255 256 256 257 258 258 259 259 259 259 260 260 260 261 261 262 263 263 264 265 266 267 268 268 269 270 271 272 273 274 275 276 277 277 278 279 280 280 281
278 279 280 282 282 279 275 271 269 269 269 269 269 270 270 270 269 266 264 263 263 263 263 262 261 259 258 256 254 252 251 251 250 250 250 250 250 250 250 251 251 252 253 253 254 254 255 255 256 257 257 258 259 259 259 259 260 260 260 261 261 262 262 263 264 265 265 266 267 268 269 270 271 272 273 274 274 275 276 277 278 279 279 280 281 281
276 277 279 281 282 279 274 269 267 267 267 267 267 268 268 269 269 268 266 265 264 265 265 265 264 262 260 258 256 254 253 252 252 251 251 250 250 250 250 251 251 252 253 254 254 255 255 256 256 257 258 258 259 259 259 259 259 260 260 261 261 262 263 264 264 265 266 267 267 268 269 270 271 272 272 273 274 275 276 277 278 278 279 280 281 281
274 276 278 281 282 279 273 268 266 266 266 266 266 266 266 268 269 269 269 268 267 266 266 266 265 264 263 261 259 257 255 254 253 252 251 250 250 250 250 251 251 252 253 254 254 255 255 256 256 257 257 258 258 258 258 259 259 260 260 261 262 262 263 264 265 265 266 267 268 269 269 270 271 271 272 273 273 274 275 276 277 278 279 280 280 281
273 274 276 279 280 279 273 269 266 266 267 266 265 265 265 266 267 269 270 270 269 268 267 266 265 265 264 262 261 258 256 254 253 252 251 251 250 250 251 251 252 253 253 254 255 255 255 256 256 257 257 257 258 258 258 259 259 260 260 261 262 262 263 264 265 266 266 267 268 269 269 270 271 271 272 273 273 274 274 275 276 277 278 279 280 280
271 272 274 276 278 278 275 271 268 268 267 267 267 266 264 264 265 267 269 269 269 269 268 267 266 265 264 263 261 259 257 255 253 252 251 251 251 251 251 252 252 253 254 254 255 255 255 256 256 256 257 257 257 257 258 258 259 260 260 261 262 262 263 264 265 266 266 267 268 269 270 270 271 271 272 272 273 274 274 275 276 277 278 278 279 280
270 271 272 274 275 276 275 273 271 269 269 269 269 268 265 263 263 264 267 268 269 269 268 267 266 265 264 263 261 259 257 255 253 252 252 251 251 252 252 253 253 254 254 254 255 255 255 256 256 256 257 257 257 257 258 258 259 260 260 261 261 262 263 264 265 265 266 267 268 269 269 270 271 272 272 273 273 274 274 275 276 277 277 278 279 280
269 269 270 272 273 274 274 273 272 271 270 270 270 270 267 264 262 263 265 266 267 268 268 268 267 265 264 262 260 258 256 254 253 252 251 251 252 252 253 253 253 254 254 254 255 255 255 255 256 256 256 257 257 257 258 258 259 260 260 261 261 262 263 264 264 265 266 267 268 269 269 270 271 272 272 273 273 274 274 275 276 277 278 278 279 280
267 268 269 270 271 272 273 274 273 271 270 270 270 270 268 265 263 263 264 265 266 267 266 266 266 265 264 262 260 258 256 254 253 252 251 251 252 252 253 253 253 254 254 254 255 255 255 256 256 256 256 257 257 257 258 259 259 260 260 261 262 262 263 264 264 265 266 267 268 268 269 270 271 271 272 273 273 274 274 275 276 277 277 278 279 280
266 267 268 268 269 271 273 274 273 271 270 269 269 269 268 266 265 264 264 264 264 264 263 263 264 263 262 260 258 256 255 253 252 251 251 251 251 252 252 252 253 253 254 254 255 255 256 256 256 256 256 257 257 257 258 259 259 260 261 261 262 263 263 264 265 265 266 267 268 269 269 270 271 271 272 273 273 274 274 275 276 277 277 278 279 280
265 266 266 267 269 271 273 274 273 271 268 267 267 267 267 267 266 265 263 262 261 260 260 260 260 260 260 258 257 255 253 252 251 251 251 251 251 251 252 253 253 254 254 255 255 255 256 256 256 256 257 257 257 258 259 259 260 261 261 262 262 263 264 264 265 265 266 267 268 268 269 270 271 271 272 272 273 274 274 275 276 277 277 278 279 280
265 265 266 267 268 271 273 275 273 270 266 265 266 268 269 268 266 263 260 259 258 257 257 257 257 257 257 256 255 253 252 251 251 251 251 251 251 252 252 253 253 254 254 255 255 256 256 256 256 257 257 257 258 258 259 260 261 261 262 263 263 263 264 264 265 266 266 267 268 269 269 270 270 271 272 272 273 273 274 275 276 276 277 278 279 279
265 265 265 267 268 271 274 275 274 270 266 265 266 268 269 267 263 260 257 256 256 256 256 256 256 255 255 254 253 252 252 251 251 251 251 251 252 252 253 253 254 254 255 255 255 256 256 256 256 257 257 258 258 259 260 260 261 262 263 263 264 264 265 265 266 266 267 267 268 269 269 270 270 271 272 272 273 273 274 274 275 276 277 278 278 279
265 265 266 267 268 271 274 275 275 272 269 267 268 268 268 264 260 257 256 255 255 255 255 255 255 255 254 253 252 252 251 251 251 251 251 252 252 253 253 253 254 254 255 255 255 256 256 256 256 257 258 258 259 259 260 261 262 263 263 264 264 265 265 266 266 267 267 268 268 269 269 270 270 271 271 272 272 273 273 274 275 276 276 277 278 279
265 265 265 266 268 270 273 275 275 274 271 269 268 267 264 261 258 256 256 255 255 255 255 255 255 255 254 253 253 252 251 251 251 251 252 252 252 252 252 253 253 254 254 255 255 256 256 256 257 257 258 258 259 260 260 261 262 263 264 264 265 265 266 266 266 267 267 268 268 269 269 269 270 270 271 271 272 272 273 274 274 275 276 277 277 278
265 264 264 265 267 269 272 274 275 275 272 269 267 264 261 258 257 256 256 256 256 256 256 256 256 256 255 254 254 253 253 252 252 252 252 252 252 252 252 252 252 253 254 255 255 256 256 256 257 257 258 258 259 260 260 261 262 263 264 264 265 265 266 266 266 267 267 267 268 268 269 269 270 270 271 271 272 272 273 273 274 274 275 276 277 277
264 263 263 264 265 268 270 273 275 274 272 268 263 260 258 257 257 257 257 257 258 258 258 258 258 258 258 257 255 254 253 252 252 252 252 251 251 251 251 251 252 253 254 254 255 256 256 256 257 257 258 258 259 259 260 261 262 263 263 264 265 265 266 266 267 267 267 268 268 268 269 269 270 270 271 271 271 272 272 273 273 274 274 275 276 276
262 262 261 262 264 267 269 272 273 272 269 265 260 258 256 256 256 258 258 259 260 260 260 260 260 259 259 259 257 255 254 252 251 251 251 251 251 250 250 251 251 252 253 254 255 255 256 256 257 257 258 258 259 259 260 261 262 262 263 264 264 265 266 266 267 267 268 268 269 269 269 269 270 270 270 271 271 272 272 272 273 273 274 274 275 275
260 260 260 261 263 266 268 271 272 270 266 261 257 255 255 255 256 257 258 260 260 260 260 260 261 261 260 260 258 256 253 252 251 251 251 251 251 250 250 250 251 252 253 254 255 255 256 256 257 257 257 258 258 259 259 260 261 262 263 263 264 265 266 267 267 268 268 269 269 269 269 270 270 270 270 271 271 271 271 272 272 272 273 273 274 274
258 258 258 259 261 264 267 269 269 266 262 258 255 253 253 254 255 256 258 259 260 260 261 261 261 261 261 260 258 255 254 252 251 251 252 252 251 251 251 251 251 252 253 254 255 255 256 256 256 257 257 257 257 258 258 259 260 261 262 263 265 266 266 267 268 268 268 269 269 269 269 270 270 270 270 271 271 271 271 271 271 272 272 272 273 273
258 256 256 257 259 262 265 265 264 261 257 254 253 252 253 254 255 256 257 258 259 260 261 261 261 261 260 259 257 256 255 253 252 252 253 253 252 252 252 252 252 253 254 255 255 255 255 255 256 256 256 256 256 257 258 259 260 261 262 263 265 266 266 267 268 268 268 269 269 269 269 270 270 270 270 270 270 270 270 270 270 271 271 271 272 273
259 257 256 256 258 261 262 262 259 256 253 251 250 251 251 253 254 256 257 257 258 259 260 260 261 261 261 260 259 257 256 255 254 254 253 253 253 254 253 253 254 254 255 255 255 255 255 255 255 255 255 255 256 256 258 259 260 261 262 264 265 265 266 267 267 268 268 269 269 269 269 270 270 270 270 270 269 269 269 269 269 270 270 271 271 272
264 261 259 258 259 261 261 259 256 252 250 249 250 250 251 252 253 254 255 256 257 259 260 261 262 262 262 261 260 259 257 256 255 254 254 254 255 255 254 254 254 254 255 255 255 255 254 255 255 255 255 255 256 256 258 259 260 261 262 264 264 265 266 267 268 268 269 269 269 269 269 269 269 269 269 269 269 268 268 268 269 269 269 270 271 271
267 265 263 262 263 263 262 259 255 252 250 251 251 252 253 253 254 254 255 257 258 260 261 262 263 263 263 262 261 260 258 257 256 254 254 254 255 255 254 254 254 254 255 255 254 254 254 254 255 255 255 255 256 257 258 259 260 262 263 264 265 266 266 267 268 269 269 269 269 269 269 269 269 269 268 268 268 267 267 267 268 268 269 269 270 271
267 267 266 266 265 264 263 260 257 255 255 255 255 256 256 256 256 256 257 258 260 262 263 263 263 264 264 263 262 260 259 257 255 254 254 254 254 254 254 254 254 254 254 254 254 254 254 254 255 255 255 255 256 257 258 259 261 262 263 264 265 266 267 267 268 269 269 269 269 269 269 268 268 268 267 267 267 267 266 267 267 267 268 269 269 270
264 266 266 266 266 265 263 262 260 260 259 260 260 259 259 258 258 258 259 260 262 263 263 263 264 264 264 264 263 261 259 257 255 254 254 254 253 254 254 254 254 254 254 254 254 254 254 254 255 255 255 256 257 257 258 260 261 262 263 264 265 266 267 268 268 268 269 269 269 268 268 268 267 267 267 266 266 266 266 266 266 267 268 268 269 269
259 261 263 265 265 265 264 263 263 263 263 263 262 262 260 259 259 260 261 262 263 263 264 264 265 265 265 265 264 263 260 258 256 255 254 254 253 254 254 254 254 254 254 255 255 255 255 255 256 256 257 257 258 258 259 260 261 263 264 265 266 266 267 267 268 268 268 268 268 268 268 267 267 267 266 266 266 266 265 266 266 266 267 267 268 269
256 258 259 262 263 264 264 264 264 265 265 264 264 263 262 260 260 261 262 262 263 264 265 265 266 266 267 266 265 263 261 258 256 255 255 254 254 255 256 255 255 255 255 256 256 256 256 256 257 258 258 259 259 260 261 262 263 263 264 265 265 266 267 267 268 268 268 268 268 268 267 267 267 266 266 266 266 265 265 265 265 266 266 267 268 269
256 257 258 259 261 263 264 265 266 266 266 265 265 265 264 263 262 262 262 262 263 265 266 267 267 268 268 267 265 263 261 259 257 256 255 255 255 256 257 256 256 256 256 256 257 257 257 258 258 259 260 261 261 262 263 263 264 264 264 265 265 265 266 267 267 268 268 268 268 268 267 267 267 266 266 266 265 265 265 265 265 265 265 266 267 268
258 258 259 259 260 261 263 265 266 267 267 267 267 267 267 267 267 266 265 264 265 266 267 268 269 269 269 267 265 263 262 260 258 256 255 255 256 257 257 257 257 257 257 257 258 259 260 260 260 261 261 262 262 263 263 263 264 264 264 264 264 265 265 266 266 267 267 267 267 267 267 267 267 266 266 266 265 265 265 264 264 264 265 266 267 268
259 259 259 259 260 260 261 263 264 266 268 269 269 270 271 272 272 272 270 269 268 269 270 270 270 271 270 269 267 265 263 261 258 256 255 255 256 257 257 257 257 257 258 259 260 261 262 263 263 263 263 263 263 263 263 263 264 264 264 264 264 265 265 266 266 267 267 267 267 267 267 267 267 266 266 266 265 265 264 264 264 264 265 266 267 268
262 261 261 261 261 261 261 263 264 266 268 270 271 272 273 274 275 275 275 274 272 272 272 272 272 272 271 271 269 267 264 261 258 256 255 255 255 256 257 257 257 258 259 260 261 262 263 264 265 265 265 266 266 267 266 266 266 267 267 267 267 267 267 268 268 268 269 268 268 268 268 268 267 267 266 266 265 265 264 264 263 263 264 265 267 268
265 265 265 265 265 266 267 268 268 269 270 271 272 273 273 273 274 275 276 276 275 274 274 273 273 272 272 272 271 269 266 263 259 257 255 254 255 256 257 257 258 259 260 261 262 263 264 265 266 267 268 268 269 270 270 271 271 272 272 272 272 271 271 271 271 271 271 271 270 270 269 269 268 268 267 266 266 265 264 263 263 263 264 265 266 268
272 272 272 273 274 275 275 276 275 274 274 273 273 272 272 272 272 273 274 276 276 276 275 274 273 272 271 271 271 270 269 265 261 257 255 254 254 255 256 257 258 259 261 262 263 265 266 267 268 270 271 272 272 272 274 275 276 277 276 276 275 275 275 275 274 274 274 273 272 272 271 271 270 269 268 267 266 265 264 264 263 263 263 264 265 267
281 280 280 280 281 281 281 280 280 279 277 276 275 273 273 272 272 272 272 273 274 275 275 274 273 272 270 269 269 270 269 265 258 254 252 252 253 254 255 256 258 259 261 263 265 267 270 271 273 274 275 276 277 278 279 280 281 281 280 280 279 279 278 278 277 277 277 276 275 274 274 273 272 270 269 268 267 266 265 264 263 263 263 263 264 266
286 285 284 283 282 281 280 280 279 279 278 277 275 274 273 272 271 271 270 270 271 272 273 273 273 271 270 270 269 268 266 260 253 249 248 249 251 253 254 257 259 261 263 267 270 272 274 276 277 278 279 280 282 283 284 285 285 285 284 284 284 283 282 281 280 280 280 279 278 277 276 275 274 273 271 270 269 268 266 265 264 263 263 263 263 264
284 283 281 280 279 278 277 276 276 275 275 274 274 273 272 272 271 270 269 268 268 268 269 270 270 270 269 268 267 264 260 254 249 246 246 247 250 252 254 258 261 263 267 270 274 277 278 279 281 281 283 284 285 286 287 287 287 287 287 287 286 286 285 284 284 284 283 282 281 280 279 278 277 275 274 273 271 270 268 266 265 264 263 263 263 263
278 278 277 276 275 274 273 273 272 272 272 272 272 272 272 272 272 271 269 267 266 265 265 266 266 266 265 264 261 257 253 249 246 246 246 248 251 254 257 261 265 269 272 275 277 279 280 280 282 283 285 286 287 288 288 288 288 288 289 288 287 287 287 287 287 286 286 285 284 283 282 281 279 278 276 275 273 272 270 268 267 265 264 263 263 263
275 274 273 273 272 271 271 270 270 269 269 269 269 270 271 271 272 271 270 268 266 263 262 261 261 261 260 258 254 250 246 244 244 245 247 251 254 258 262 266 270 273 276 277 278 279 280 281 282 284 285 287 288 288 288 288 289 289 289 289 288 288 288 288 288 288 287 287 286 286 285 283 282 280 279 277 275 274 272 270 268 266 265 264 263 263
275 274 273 272 271 270 269 269 268 267 267 267 267 268 269 270 271 270 270 268 266 263 260 257 255 255 255 253 250 246 243 242 243 245 249 252 257 262 266 269 272 274 276 276 277 278 279 281 282 284 286 287 288 288 289 289 289 289 289 289 289 289 289 289 289 289 289 289 289 288 287 286 285 283 281 279 277 275 273 272 270 268 266 264 264 264
278 277 276 274 272 271 270 269 268 267 267 267 267 268 269 270 270 270 270 269 267 264 260 255 252 251 250 250 248 246 244 243 244 247 250 254 258 262 266 268 271 272 273 274 276 277 280 282 283 285 287 288 289 289 289 289 288 288 288 288 289 289 289 289 289 290 291 291 290 290 289 288 287 285 283 281 279 277 275 273 271 269 267 266 265 264
282 281 279 277 275 274 272 270 269 268 268 268 268 268 268 268 268 268 268 267 266 264 261 256 252 249 247 246 245 244 244 245 246 249 251 255 258 261 264 266 268 270 271 273 276 278 282 284 285 286 288 289 289 289 288 288 288 287 287 288 289 289 289 290 290 291 291 291 290 290 289 288 287 286 284 282 280 278 276 274 272 270 269 267 266 265
285 284 282 280 279 277 275 273 271 270 269 268 268 267 266 265 265 264 264 264 263 261 259 255 250 247 245 244 243 243 243 245 247 249 252 255 257 260 263 265 267 269 272 275 277 280 283 285 286 288 289 289 288 287 287 287 287 287 288 288 289 290 290 291 292 292 291 290 290 289 289 288 287 285 284 282 280 278 277 275 273 271 269 268 267 266
287 287 286 285 283 281 279 276 274 271 269 268 267 266 264 262 261 259 258 258 257 256 254 251 247 245 243 243 243 243 243 245 247 249 252 255 258 260 263 265 268 271 274 277 280 282 284 285 286 288 288 287 286 285 285 286 287 288 288 289 290 290 291 291 291 291 290 289 289 288 287 287 285 284 283 281 280 278 277 275 274 272 270 268 267 267
287 287 287 287 286 285 282 279 275 271 269 267 265 263 261 258 256 254 252 252 251 250 249 247 245 244 243 244 244 244 245 246 248 251 253 256 259 262 264 267 270 273 276 278 281 283 284 285 285 285 285 284 283 283 284 285 287 288 289 290 290 290 290 290 290 289 289 289 288 287 286 285 284 283 282 281 280 278 277 275 274 273 271 269 268 267
287 286 286 286 286 285 284 281 276 272 269 265 262 259 255 251 248 246 245 246 246 246 246 245 245 245 245 246 246 246 247 249 251 253 255 258 260 263 266 269 272 275 277 279 281 282 282 283 283 282 281 281 281 282 284 285 286 287 289 289 289 289 289 289 289 289 289 288 287 287 286 284 283 282 281 280 279 278 277 275 274 273 271 270 269 268
286 285 284 284 284 284 283 281 277 273 268 264 258 252 247 242 239 236 236 238 240 243 245 246 247 247 248 248 249 250 251 252 254 256 258 261 263 266 269 271 274 276 277 278 279 279 280 279 279 279 278 279 280 281 283 285 286 287 288 288 289 289 289 289 290 290 289 288 287 287 285 284 283 282 281 280 279 278 277 276 274 273 272 271 270 269
285 283 282 281 281 281 281 280 278 274 268 261 252 244 239 234 230 228 229 231 234 239 242 245 248 250 251 253 254 255 256 257 258 260 262 265 267 270 271 273 274 275 275 276 276 277 277 277 276 276 277 278 280 282 284 286 287 288 288 288 289 289 290 290 291 290 290 289 288 287 285 284 283 282 281 280 279 278 277 276 275 274 273 272 271 271
283 281 280 279 279 279 280 279 277 273 267 257 247 238 234 230 228 226 227 229 233 237 241 244 248 251 253 256 257 259 260 261 263 265 267 269 270 271 272 272 272 273 274 274 275 275 276 276 276 277 277 279 281 284 286 288 288 289 289 290 290 291 292 292 292 291 291 290 288 287 286 284 283 282 281 280 280 279 278 277 276 275 274 273 272 272
282 280 278 277 276 276 277 277 276 272 265 255 245 237 233 231 230 230 230 232 235 239 242 246 249 252 254 256 258 260 262 264 266 267 269 270 271 271 271 271 271 272 273 274 275 275 276 277 278 279 280 282 284 287 289 290 290 291 291 292 293 293 293 293 293 293 292 291 290 288 287 286 284 283 282 281 281 280 279 278 277 276 275 274 273 272